Miscellaneous Local Product
Issued by NWS North Platte, NE

Home | Current Version | Previous Version | Text Only | Print | Product List | Glossary On
Versions: 1 2 3 4 5 6 7 8 9 10 11 12 13 14 15 16 17 18 19 20 21 22 23 24 25 26 27 28 29 30 31 32 33 34 35 36 37 38 39 40 41 42 43 44 45 46 47 48 49 50
000
AXUS43 KLBF 070010
MISLBF


WESTERN AND NORTH CENTRAL NEBRASKA HOURLY WEATHER ROUNDUP
NATIONAL WEATHER SERVICE NORTH PLATTE NE
700 PM CDT WED MAY 06 2015

***STATIONS NOT REPORTING VARIABLES SUCH AS SKY/WEATHER OR
PRESSURE ARE PROVIDED BY THE NEBRASKA DEPARTMENT OF
ROADS...RAWS...AND APRS NETWORKS...AND ARE NOT UNDER
NATIONAL WEATHER SERVICE QUALITY CONTROL***

...OBSERVATIONS IN AND NEAR THE EASTERN PANHANDLE OF NEBRASKA...

CITY           SKY/WX    TMP DP  RH WIND       PRES   REMARKS
PINE RIDGE     CLOUDY    61  51  70 VRB3      29.60R
CHADRON        CLOUDY    62  52  69 NW14      29.60R
ALLIANCE       CLOUDY    58  52  80 S12       29.60S
SIDNEY         PTSUNNY   58  53  84 NW6       29.64R
WHITECLAY        N/A     63  48  59 S7          N/A
BIG SPRINGS      N/A     64  56  77 SE5         N/A
$$

...OBSERVATIONS IN NORTH CENTRAL NEBRASKA...

CITY           SKY/WX    TMP DP  RH WIND       PRES   REMARKS
VALENTINE      CLOUDY    62  57  83 CALM      29.60F
THEDFORD       CLOUDY    66  56  71 SE3       29.59F
AINSWORTH      PTSUNNY   69  56  62 S6        29.60S
O`NEILL        CLOUDY    65  62  90 S14G25    29.63F
ORD            LGT RAIN  61  57  87 E8        29.60F
BROKEN BOW     PTSUNNY   63  57  81 SE14      29.59F
BROWNLEE         N/A     66  55  67 SE9         N/A
VALENTINE NWR    N/A     63  60  88 SE7G14      N/A
SPRINGVIEW       N/A     69  58  67 S5          N/A
HALSEY           N/A     68  54  60 S9          N/A
BREWSTER         N/A     66  61  86 S21         N/A
ROSE             N/A     60  59  97 E17         N/A
NEWPORT          N/A     62  60  93 S18         N/A
SARGENT          N/A     60  58  95 SE5G12      N/A
COMSTOCK         N/A     67  66  96 SE12        N/A
EWING            N/A     63  61  93 E3          N/A
$$

...OBSERVATIONS IN SOUTHWEST NEBRASKA AND FAR NORTHEAST COLORADO...

CITY           SKY/WX    TMP DP  RH WIND       PRES   REMARKS
WRAY           FAIR      67  56  67 SW20      29.60S
IMPERIAL       CLOUDY    61  54  77 S13       29.58R
OGALLALA       PTSUNNY   65  54  67 SW5       29.58R
NORTH PLATTE   CLOUDY    65  53  65 S9        29.58S
MCCOOK         CLOUDY    69  54  58 SW7       29.57F
LEXINGTON      PTSUNNY   64  62  93 SE13      29.58F
PAXTON           N/A     65  56  74 SE6         N/A
SUTHERLAND       N/A     64  54  69 S6          N/A
GOTHENBURG       N/A     69  51  51 S8          N/A
CALLAWAY         N/A     63  60  88 SE18        N/A
$$

...NORTH PLATTE AREA...

CITY           SKY/WX    TMP DP  RH WIND       PRES   REMARKS
AIRPORT        CLOUDY    65  53  65 S9        29.58S
$$

...SOME WEATHER OBSERVATIONS FROM AROUND THE REGION...

CITY           SKY/WX    TMP DP  RH WIND       PRES   REMARKS
DENVER         CLOUDY    59  47  64 CALM      29.71R THUNDER
LARAMIE        LGT RAIN  44  42  93 N16       29.79R
CHEYENNE       LGT RAIN  51  44  77 NW14      29.75R
SCOTTSBLUFF    LGT RAIN  59  54  83 NW10      29.64R
RAPID CITY     LGT RAIN  54  49  83 NW32G44   29.63F
PIERRE         CLOUDY    67  57  70 S10       29.58S
WINNER         LGT RAIN  64  58  80 SE3       29.60S
SIOUX FALLS    CLOUDY    67  60  78 S16G30    29.72F
OMAHA          CLOUDY    71  61  70 S20       29.76F
GRAND ISLAND   LGT RAIN  61  58  90 S17G29    29.62R
KANSAS CITY    MOSUNNY   71  63  75 SE17G25   29.85F
WICHITA        CLOUDY    73  66  78 S25G41    29.71F
HAYS           PTSUNNY   79  55  44 S18G26    29.59R
LIBERAL        MOSUNNY   79  48  34 SW22G31   29.65R
GOODLAND       CLOUDY    66  56  70 SW15      29.61F
$$



USA.gov is the U.S. government's official web portal to all federal, state and local government web resources and services.